Location: Home
(42.5358°N, 72.7383°W)
Time: 22:31:25
(UTC-05:00)

Vanguard 1 Rocket - Pass Details

Date: 08 December 2021
Orbit: 651 x 4225 km, 34.3° (Epoch: 26 January)

Event Time Altitude Azimuth Distance (km) Brightness Sun altitude
Exits shadow 01:13:33 24° 100° (E) 3,953 10.6 -62.7°
Drops below altitude 10° 01:19:33 10° 89° (E) 5,642 11.6 -61.8°
Sets 01:25:27 0° 84° (E) 7,235 12.4 -60.9°
